Terug naar catalogus

GUANGCHUAN 02

ActiefCommunicatieVLEO
NORAD 62112·PAYLOAD·🇨🇳 China

Gelanceerd Nov 27, 2024 vanaf Jiuquan Satellite Launch Center

Loading…

Volgende Passages (komende 24 uur)

TLE

VersSource: Space-Track

Epoch: Sep 14, 2026, 22:51 UTC

1 62112U 24221B   26257.95237173  .00002184  00000-0  13381-3 0  9996
2 62112  49.9417  84.9457 0005945 348.6719  11.4097 15.14334631 99782

Volg GUANGCHUAN 02 in realtime met AllMySat

Download on the App Store